Location: ???????????
(55.5758°N, 38.4970°E)
Time: 18:12:25
(UTC+00:00)

NOSS 2-3 (E) - Pass Details

Date: 15 November 2025
Orbit: 492 x 1706 km, 63.3° (Epoch: 24 April)

Event Time Altitude Azimuth Distance (km) Brightness Sun altitude
Exits shadow 04:05:48 - 309° (NW) 2,150 5.7 -7.7°
Reaches altitude 10° 04:06:03 10° 310° (NW) 2,048 5.6 -7.7°
Maximum altitude 04:10:40 72° 35° (NE) 814 4.2 -7.1°
Drops below altitude 10° 04:16:50 10° 120° (ESE) 2,718 8.7 -6.3°
Sets 04:19:51 0° 122° (ESE) 3,867 10.0 -5.9°
